FW6664 Weather Reports


time (UTC)temp
C
wind
direction
speed
KPH
gust
KPH
rain 1hr
cm
rain 24hr
cm
rain mn
cm
humidity
%
barometer
mb
20260507061853 14 292 3.2 0.0 0.00 0.00 0.00 33 1017.0
20260507061536 13 292 3.2 3.2 0.00 0.00 0.00 33 1017.0
20260507061327 14 292 3.2 0.0 0.00 0.00 0.00 33 1017.0
20260507061026 13 292 0.0 3.2 0.00 0.00 0.00 33 1017.0
20260507060906 14 292 3.2 0.0 0.00 0.00 0.00 33 1017.0
20260507060559 13 292 1.6 3.2 0.00 0.00 0.00 33 1017.0
20260507060359 14 292 4.8 0.0 0.00 0.00 0.00 33 1017.0
20260507060022 14 292 3.2 4.8 0.00 0.00 0.00 33 1017.0
20260507055905 14 292 3.2 0.0 0.00 0.00 0.00 33 1017.0
20260507055547 14 292 1.6 4.8 0.00 0.00 0.00 33 1017.0
20260507055340 14 292 4.8 0.0 0.00 0.00 0.00 33 1017.0
20260507055041 13 292 3.2 4.8 0.00 0.00 0.00 33 1017.0
20260507054835 14 292 6.4 0.0 0.00 0.00 0.00 33 1017.0
20260507054538 14 292 1.6 1.6 0.00 0.00 0.00 33 1017.0
20260507054332 14 292 3.2 0.0 0.00 0.00 0.00 33 1017.0
20260507054032 13 292 1.6 1.6 0.00 0.00 0.00 33 1017.0
20260507053852 14 292 3.2 0.0 0.00 0.00 0.00 33 1017.0
20260507053601 13 292 0.0 1.6 0.00 0.00 0.00 33 1017.0
20260507053504 14 292 0.0 1.6 0.00 0.00 0.00 33 1017.0
20260507053326 14 292 1.6 0.0 0.00 0.00 0.00 33 1017.0
20260507053053 14 293 0.0 1.6 0.00 0.00 0.00 33 1017.0
20260507052843 14 292 0.0 0.0 0.00 0.00 0.00 33 1017.0
20260507052547 14 292 0.0 0.0 0.00 0.00 0.00 33 1017.0
20260507052357 14 292 0.0 0.0 0.00 0.00 0.00 33 1017.0
20260507052019 14 292 0.0 1.6 0.00 0.00 0.00 33 1017.0
20260507051832 14 292 1.6 0.0 0.00 0.00 0.00 33 1017.0
20260507051513 14 292 0.0 1.6 0.00 0.00 0.00 33 1017.0
20260507051330 14 292 1.6 0.0 0.00 0.00 0.00 33 1017.0
20260507051007 14 292 0.0 0.0 0.00 0.00 0.00 33 1017.0
20260507050909 14 292 0.0 0.0 0.00 0.00 0.00 33 1017.0
20260507050532 14 292 0.0 0.0 0.00 0.00 0.00 33 1017.0
20260507050341 14 292 0.0 0.0 0.00 0.00 0.00 33 1017.0
20260507050030 14 292 0.0 0.0 0.00 0.00 0.00 33 1017.0
20260507045838 15 292 0.0 0.0 0.00 0.00 0.00 33 1017.0
20260507045526 14 292 0.0 0.0 0.00 0.00 0.00 33 1017.0
20260507045355 15 292 3.2 0.0 0.00 0.00 0.00 33 1017.0
20260507045054 14 292 0.0 0.0 0.00 0.00 0.00 33 1017.0
20260507044832 15 292 1.6 0.0 0.00 0.00 0.00 33 1017.0
20260507044604 14 292 0.0 0.0 0.00 0.00 0.00 33 1017.0
20260507044328 15 292 1.6 0.0 0.00 0.00 0.00 33 1017.0
20260507044042 14 292 0.0 0.0 0.00 0.00 0.00 33 1017.0
20260507043843 15 292 0.0 0.0 0.00 0.00 0.00 33 1017.0
20260507043535 15 292 0.0 1.6 0.00 0.00 0.00 33 1017.0
20260507043402 15 292 0.0 0.0 0.00 0.00 0.00 33 1017.0
20260507043019 15 292 0.0 1.6 0.00 0.00 0.00 33 1017.0
20260507042856 15 292 3.2 0.0 0.00 0.00 0.00 33 1017.0
20260507042539 15 292 0.0 1.6 0.00 0.00 0.00 33 1017.0
20260507042331 15 292 1.6 0.0 0.00 0.00 0.00 33 1017.0
20260507042037 15 292 1.6 1.6 0.00 0.00 0.00 33 1017.0
20260507041827 15 292 1.6 0.0 0.00 0.00 0.00 33 1017.0
20260507041526 15 292 1.6 6.4 0.00 0.00 0.00 33 1017.0
20260507041328 15 292 4.8 0.0 0.00 0.00 0.00 33 1017.0
20260507041022 15 292 1.6 6.4 0.00 0.00 0.00 33 1017.0
20260507040845 15 292 3.2 0.0 0.00 0.00 0.00 33 1017.0
20260507040559 15 293 3.2 8.0 0.00 0.00 0.00 33 1017.0
20260507040503 15 292 1.6 8.0 0.00 0.00 0.00 33 1017.0
20260507040329 15 293 4.8 0.0 0.00 0.00 0.00 33 1017.0
20260507040055 15 292 4.8 8.0 0.00 0.00 0.00 33 1017.0
20260507035848 15 293 9.7 0.0 0.00 0.00 0.00 33 1017.0
20260507035530 15 295 4.8 8.0 0.00 0.00 0.00 33 1017.0
20260507035325 15 292 8.0 0.0 0.00 0.00 0.00 33 1017.0
20260507035007 15 293 4.8 8.0 0.00 0.00 0.00 33 1017.0
20260507034902 15 297 6.4 0.0 0.00 0.00 0.00 33 1017.0
20260507034537 15 291 4.8 9.7 0.00 0.00 0.00 33 1017.0
20260507034340 15 291 6.4 0.0 0.00 0.00 0.00 33 1017.0
20260507034009 15 292 4.8 11.3 0.00 0.00 0.00 33 1017.0
20260507033836 16 298 6.4 0.0 0.00 0.00 0.00 33 1017.0
20260507033505 15 289 6.4 11.3 0.00 0.00 0.00 33 1017.0
20260507033332 16 285 9.7 0.0 0.00 0.00 0.00 33 1017.0
20260507033057 15 289 8.0 9.7 0.00 0.00 0.00 33 1017.0
20260507032829 16 287 12.9 0.0 0.00 0.00 0.00 33 1017.0
20260507032552 16 290 6.4 11.3 0.00 0.00 0.00 33 1017.0
20260507032325 16 292 11.3 0.0 0.00 0.00 0.00 33 1017.0
20260507032045 16 293 8.0 11.3 0.00 0.00 0.00 33 1017.0
20260507031842 16 301 11.3 0.0 0.00 0.00 0.00 33 1017.0
20260507031518 16 293 9.7 11.3 0.00 0.00 0.00 33 1017.0
20260507031337 16 293 8.0 0.0 0.00 0.00 0.00 33 1017.0
20260507031048 16 294 6.4 11.3 0.00 0.00 0.00 33 1017.0
20260507030833 16 297 6.4 0.0 0.00 0.00 0.00 33 1017.0
20260507030541 16 294 6.4 11.3 0.00 0.00 0.00 33 1017.0
20260507030331 16 292 8.0 0.0 0.00 0.00 0.00 33 1017.0
20260507030038 16 290 8.0 9.7 0.00 0.00 0.00 33 1017.0
20260507025826 16 289 11.3 0.0 0.00 0.00 0.00 33 1017.0
20260507025529 16 291 9.7 14.5 0.00 0.00 0.00 33 1017.0
20260507025405 16 288 6.4 0.0 0.00 0.00 0.00 33 1017.0
20260507025100 16 282 8.0 14.5 0.00 0.00 0.00 33 1017.0
20260507025004 16 290 8.0 14.5 0.00 0.00 0.00 33 1017.0
20260507024840 16 290 11.3 0.0 0.00 0.00 0.00 33 1017.0
20260507024556 16 288 11.3 14.5 0.00 0.00 0.00 33 1017.0
20260507024337 17 291 14.5 0.0 0.00 0.00 0.00 33 1017.0
20260507024048 16 289 9.7 12.9 0.00 0.00 0.00 33 1017.0
20260507023833 17 297 8.0 0.0 0.00 0.00 0.00 33 1017.0
20260507023542 17 300 6.4 11.3 0.00 0.00 0.00 33 1017.0
20260507023329 17 297 14.5 0.0 0.00 0.00 0.00 33 1017.0
20260507023038 17 290 8.0 9.7 0.00 0.00 0.00 33 1017.0
20260507022825 17 287 14.5 0.0 0.00 0.00 0.00 33 1017.0
20260507022532 17 299 8.0 11.3 0.00 0.00 0.00 33 1017.0
20260507022404 17 288 12.9 0.0 0.00 0.00 0.00 33 1017.0
20260507022004 17 290 9.7 11.3 0.00 0.00 0.00 33 1017.0
20260507021836 17 287 16.1 0.0 0.00 0.00 0.00 33 1017.0
20260507021554 17 296 8.0 12.9 0.00 0.00 0.00 33 1017.0
20260507021353 18 306 11.3 0.0 0.00 0.00 0.00 33 1017.0
20260507021030 18 295 9.7 12.9 0.00 0.00 0.00 33 1017.0
20260507020829 18 288 17.7 0.0 0.00 0.00 0.00 33 1017.0
20260507020522 18 268 11.3 17.7 0.00 0.00 0.00 33 1017.0
20260507020326 18 273 12.9 0.0 0.00 0.00 0.00 33 1017.0
20260507020009 18 290 14.5 17.7 0.00 0.00 0.00 33 1017.0
20260507015837 18 281 9.7 0.0 0.00 0.00 0.00 33 1017.0
20260507015600 18 295 6.4 11.3 0.00 0.00 0.00 33 1017.0
20260507015504 18 300 6.4 11.3 0.00 0.00 0.00 33 1017.0
20260507015337 18 289 11.3 0.0 0.00 0.00 0.00 33 1017.0
20260507015055 18 304 9.7 11.3 0.00 0.00 0.00 33 1017.0
20260507014834 19 287 12.9 0.0 0.00 0.00 0.00 33 1017.0
20260507014547 19 294 9.7 14.5 0.00 0.00 0.00 33 1017.0
20260507014329 19 294 11.3 0.0 0.00 0.00 0.00 33 1017.0
20260507014041 19 277 8.0 14.5 0.00 0.00 0.00 33 1017.0
20260507013846 20 286 6.4 0.0 0.00 0.00 0.00 33 1017.0
20260507013532 19 285 11.3 12.9 0.00 0.00 0.00 33 1017.0
20260507013401 20 269 11.3 0.0 0.00 0.00 0.00 33 1017.0
20260507013006 20 308 6.4 12.9 0.00 0.00 0.00 33 1017.0
20260507012836 20 296 6.4 0.0 0.00 0.00 0.00 33 1017.0
20260507012555 20 289 6.4 12.9 0.00 0.00 0.00 33 1017.0
20260507012331 20 289 4.8 0.0 0.00 0.00 0.00 33 1017.0
20260507012050 20 296 8.0 14.5 0.00 0.00 0.00 33 1017.0
20260507011829 20 285 8.0 0.0 0.00 0.00 0.00 33 1017.0
20260507011547 20 272 6.4 14.5 0.00 0.00 0.00 33 1017.0
20260507011405 20 281 4.8 0.0 0.00 0.00 0.00 33 1017.0
20260507011018 20 299 11.3 14.5 0.00 0.00 0.00 33 1017.0
20260507010902 20 296 14.5 0.0 0.00 0.00 0.00 33 1017.0
20260507010547 20 309 8.0 12.9 0.00 0.00 0.00 33 1017.0
20260507010336 20 297 16.1 0.0 0.00 0.00 0.00 33 1017.0
20260507010044 20 299 8.0 12.9 0.00 0.00 0.00 33 1017.0
20260507005833 20 271 9.7 0.0 0.00 0.00 0.00 33 1017.0
20260507005537 20 305 3.2 17.7 0.00 0.00 0.00 33 1017.0
20260507005352 20 292 8.0 0.0 0.00 0.00 0.00 33 1017.0
20260507005010 20 286 9.7 17.7 0.00 0.00 0.00 33 1017.0
20260507004826 20 280 11.3 0.0 0.00 0.00 0.00 33 1017.0
20260507004505 20 302 4.8 12.9 0.00 0.00 0.00 33 1017.0
20260507004343 21 294 8.0 0.0 0.00 0.00 0.00 33 1017.0
20260507004056 20 289 9.7 16.1 0.00 0.00 0.00 33 1017.0
20260507003839 21 276 9.7 0.0 0.00 0.00 0.00 33 1017.0
20260507003550 20 290 11.3 16.1 0.00 0.00 0.00 33 1017.0
20260507003336 21 290 6.4 0.0 0.00 0.00 0.00 33 1017.0
20260507003046 20 290 14.5 16.1 0.00 0.00 0.00 33 1017.0
20260506210338 21 285 16.1 0.0 0.00 0.00 0.00 33 1017.0
20260506210104 21 280 8.0 9.7 0.00 0.00 0.00 33 1017.0
20260506170329 17 345 9.7 0.0 0.00 0.00 0.00 33 1017.0
20260506155841 16 38 1.6 0.0 0.00 0.00 0.00 33 1017.0
20260506155559 16 38 1.6 3.2 0.00 0.00 0.00 33 1017.0
20260506155502 16 38 1.6 4.8 0.00 0.00 0.00 33 1017.0
20260506155330 16 38 4.8 0.0 0.00 0.00 0.00 33 1017.0
20260506155025 16 38 0.0 4.8 0.00 0.00 0.00 33 1017.0
20260506154842 16 38 1.6 0.0 0.00 0.00 0.00 33 1017.0
20260506154508 15 38 4.8 4.8 0.00 0.00 0.00 33 1017.0
20260506154329 16 42 1.6 0.0 0.00 0.00 0.00 33 1017.0
20260506154055 15 42 1.6 3.2 0.00 0.00 0.00 33 1017.0
20260506153838 16 42 6.4 0.0 0.00 0.00 0.00 33 1017.0
20260506153544 15 42 0.0 3.2 0.00 0.00 0.00 33 1017.0
20260506153347 15 42 0.0 0.0 0.00 0.00 0.00 33 1017.0
20260506153025 15 42 1.6 3.2 0.00 0.00 0.00 33 1017.0
20260506152834 15 42 0.0 0.0 0.00 0.00 0.00 33 1017.0
20260506152547 15 42 0.0 1.6 0.00 0.00 0.00 33 1017.0
20260506152326 15 42 0.0 0.0 0.00 0.00 0.00 33 1017.0
20260506152043 15 42 1.6 1.6 0.00 0.00 0.00 33 1017.0
20260506151839 15 42 3.2 0.0 0.00 0.00 0.00 33 1017.0
20260506151527 14 42 0.0 1.6 0.00 0.00 0.00 33 1017.0
20260506151328 14 42 1.6 0.0 0.00 0.00 0.00 33 1017.0
20260506151053 14 42 0.0 1.6 0.00 0.00 0.00 33 1017.0
20260506150841 14 42 1.6 0.0 0.00 0.00 0.00 33 1017.0
20260506150539 13 42 1.6 1.6 0.00 0.00 0.00 33 1017.0
20260506150327 13 42 4.8 0.0 0.00 0.00 0.00 33 1017.0
20260506150027 13 43 0.0 0.0 0.00 0.00 0.00 33 1017.0
20260506145841 13 43 1.6 0.0 0.00 0.00 0.00 33 1017.0
20260506145518 13 43 0.0 0.0 0.00 0.00 0.00 33 1017.0
20260506145332 13 43 0.0 0.0 0.00 0.00 0.00 33 1017.0
20260506145008 13 43 0.0 1.6 0.00 0.00 0.00 33 1017.0
20260506144841 13 43 1.6 0.0 0.00 0.00 0.00 33 1017.0
20260506144548 13 43 0.0 1.6 0.00 0.00 0.00 33 1017.0
20260506144353 13 43 1.6 0.0 0.00 0.00 0.00 33 1017.0
20260506144019 12 43 0.0 1.6 0.00 0.00 0.00 33 1017.0
20260506143844 12 43 0.0 0.0 0.00 0.00 0.00 33 1017.0
20260506143505 12 43 0.0 1.6 0.00 0.00 0.00 33 1017.0
20260506143333 12 43 0.0 0.0 0.00 0.00 0.00 33 1017.0
20260506143053 12 43 0.0 1.6 0.00 0.00 0.00 33 1017.0
20260506142845 12 43 0.0 0.0 0.00 0.00 0.00 33 1017.0
20260506142539 12 43 1.6 1.6 0.00 0.00 0.00 33 1017.0
20260506142331 12 43 3.2 0.0 0.00 0.00 0.00 33 1017.0
20260506142026 11 43 0.0 1.6 0.00 0.00 0.00 33 1017.0
20260506141846 11 43 3.2 0.0 0.00 0.00 0.00 33 1017.0
20260506141521 11 41 1.6 1.6 0.00 0.00 0.00 33 1017.0
20260506141350 11 41 3.2 0.0 0.00 0.00 0.00 33 1017.0
20260506141032 11 41 0.0 3.2 0.00 0.00 0.00 33 1017.0
20260506140842 11 41 1.6 0.0 0.00 0.00 0.00 33 1017.0
20260506140522 11 41 1.6 3.2 0.00 0.00 0.00 33 1017.0
20260506140349 11 41 4.8 0.0 0.00 0.00 0.00 33 1017.0
20260506140005 11 43 1.6 3.2 0.00 0.00 0.00 33 1017.0
20260506135836 11 42 4.8 0.0 0.00 0.00 0.00 33 1017.0
20260506135549 11 42 1.6 3.2 0.00 0.00 0.00 33 1017.0
20260506135329 11 42 8.0 0.0 0.00 0.00 0.00 33 1017.0
20260506135041 11 44 3.2 3.2 0.00 0.00 0.00 33 1017.0
20260506134839 11 43 4.8 0.0 0.00 0.00 0.00 33 1017.0
20260506134526 11 43 3.2 3.2 0.00 0.00 0.00 33 1017.0
20260506134348 11 43 3.2 0.0 0.00 0.00 0.00 33 1017.0
20260506134106 10 40 3.2 3.2 0.00 0.00 0.00 33 1017.0
20260506091003 11 345 0.0 0.0 0.00 0.00 0.00 33 1017.0
20260506090829 12 345 1.6 0.0 0.00 0.00 0.00 33 1017.0
20260506090342 12 344 1.6 0.0 0.00 0.00 0.00 33 1017.0
20260506090027 11 344 0.0 0.0 0.00 0.00 0.00 33 1017.0